Regional Weather Roundup
Issued by NWS

Home | Current Version | Previous Version | Graphics & Text | Print | Product List | Glossary On
Versions: 1 2 3 4 5 6 7 8 9 10 11 12 13 14 15 16 17 18 19 20 21 22 23 24 25 26 27 28 29 30 31 32 33 34 35 36 37 38 39 40 41 42 43 44 45 46 47 48 49 50
000
ASUS43 KLSX 240510
RWRMO

WEATHER SUMMARY FOR MISSOURI
NATIONAL WEATHER SERVICE SPRINGFIELD MO
1200 AM CDT SAT JUN 24 2017

NOTE: "FAIR" INDICATES FEW OR NO CLOUDS BELOW 12,000 FEET WITH NO
       SIGNIFICANT WEATHER AND/OR OBSTRUCTIONS TO VISIBILITY.
       CURRENT SKY AND/OR WEATHER CONDITIONS ARE NOT AVAILABLE FOR
       CHILLICOTHE AND FARMINGTON.

MOZ001>031-035>038-043-044-053-054-240600-
...NORTHERN AND WESTERN MISSOURI...

CITY           SKY/WX    TMP DP  RH WIND       PRES   REMARKS
KANSAS CTY INT CLEAR     64  54  69 NW6       30.09R
KANSAS C DTWN  CLEAR     68  55  63 W5        30.08R
LEE`S SUMMIT   CLEAR     67  54  63 NW5       30.09R
ST JOSEPH      PTCLDY    60  56  86 NW3       30.09R
CHILLICOTHE      N/A     65  55  70 CALM      30.07R
KIRKSVILLE     CLEAR     61  54  77 W5        30.05R

$$
MOZ066>068-077>081-088>096-101>105-240600-
...SOUTHWEST MISSOURI...

CITY           SKY/WX    TMP DP  RH WIND       PRES   REMARKS
SPRINGFIELD    CLEAR     65  57  75 NW7       30.06R
JOPLIN         PTCLDY    68  57  68 N9        30.08R
BRANSON        CLEAR     66  63  88 CALM      30.05S

$$
MOZ032>034-039>042-045>050-055>058-069>072-240600-
...CENTRAL MISSOURI...

CITY           SKY/WX    TMP DP  RH WIND       PRES   REMARKS
COLUMBIA       CLEAR     68  56  65 NW13      30.03R
JEFFERSON CITY CLEAR     69  54  58 NW5       30.02R
ROLLA          CLEAR     64  52  64 NW7       30.02R
SEDALIA        CLEAR     65  57  75 NW6       30.07R
WHITEMAN AFB   CLEAR     65  57  74 NW6       30.06R
WARRENSBURG    CLEAR     63  54  72 W3        30.07S
OSAGE BEACH    CLEAR     67  54  63 N5        30.05R

$$
MOZ051-052-059>065-240600-
...EAST CENTRAL MISSOURI...

CITY           SKY/WX    TMP DP  RH WIND       PRES   REMARKS
ST LOUIS INTL  PTCLDY    72  55  55 NW7       29.98R
SPIRIT OF STL  PTCLDY    71  56  58 NW8       29.97R
ST CHARLES     PTCLDY    71  56  58 NW9       29.96R

$$
MOZ072>076-082>087-097>100-106>115-240600-
...SOUTH CENTRAL AND SOUTHEAST MISSOURI...

CITY           SKY/WX    TMP DP  RH WIND       PRES   REMARKS
CAPE GIRARDEAU CLOUDY    70  62  76 NW6       29.93S
FARMINGTON     CLOUDY    65  60  84 VRB3      29.99R
POPLAR BLUFF   MOCLDY    70  64  81 N5        29.95R
WEST PLAINS    CLOUDY    63  60  90 W6        30.03R

$$




USA.gov is the U.S. government's official web portal to all federal, state and local government web resources and services.